Location: Newark
(49.8969°N, 3.3422°E)
Time: 19:11:11
(UTC+00:00)

Explorer 7 - Pass Details

Date: 31 January 2020
Orbit: 485 x 679 km, 50.3° (Epoch: 19 February)

Event Time Altitude Azimuth Distance (km) Brightness Sun altitude
Rises 23:04:35 0° 274° (W) 2,570 - -55.6°
Reaches altitude 10° 23:06:46 10° 275° (W) 1,677 - -55.7°
Maximum altitude 23:10:33 84° 2° (N) 493 - -55.9°
Drops below altitude 10° 23:14:19 10° 92° (E) 1,675 - -56.1°
Sets 23:16:30 0° 94° (E) 2,567 - -56.3°
